Change the Weather History Date:

Tuesday, January 15, 2013

  Actual Average (KTVC) Record (KTVC)
Temperature  
Mean Temperature 25 °F 21 °F  
Max Temperature 31 °F 28 °F 52 °F (1949)
Min Temperature 19 °F 15 °F -19 °F (1982)
Degree Days  
Heating Degree Days 40 44  
Month to date heating degree days 645  
Since 1 July heating degree days 3453  
Moisture  
Dew Point 16 °F    
Average Humidity 64    
Maximum Humidity 71    
Minimum Humidity 58    
Precipitation  
Precipitation 0.00 in 0.10 in 0.48 in (1994)
Month to date precipitation 1.46  
Year to date precipitation 1.46  
Sea Level Pressure  
Sea Level Pressure 30.26 in    
Wind  
Wind Speed 10 mph (WSW)    
Max Wind Speed 17 mph    
Max Gust Speed 25 mph    
Visibility 10 miles    
Events      
T = Trace of Precipitation, MM = Missing Value Source: NWS Daily Summary

Daily Weather History Graph

Daily Weather History Graph

Search for Another Location

Airport or City:

Trip Planner

Search our weather history database for the weather conditions in past years. The results will help you decide how hot, cold, wet, or windy it might be!

Date:

Astronomy

Jan. 15, 2013 Rise Set
Actual Time 8:18 AM EST 5:31 PM EST
Civil Twilight 7:45 AM EST 6:03 PM EST
Nautical Twilight 7:09 AM EST 6:39 PM EST
Astronomical Twilight 6:34 AM EST 7:14 PM EST
Moon 10:10 AM EST (1/15) 10:34 PM EST (1/15)
Length of Visible Light 10h 17m
Length of Day
9h 12m
Waxing Crescent, 19% of the Moon is Illuminated
Jan 15
Waxing Crescent
Jan 18
First Quarter
Jan 26
Full
Feb 3
Last Quarter
Feb 10
New

Hourly Weather History & Observations

Time (EST) Temp. Windchill Dew Point Humidity Pressure Visibility Wind Dir Wind Speed Gust Speed Precip Events Conditions
12:15 AM 23.4 °F 11.6 °F 14.0 °F 67% 30.35 in 10.0 mi West 12.7 mph 25.3 mph N/A   Overcast
12:35 AM 22.8 °F 10.9 °F 13.5 °F 67% 30.34 in 10.0 mi WNW 12.7 mph 24.2 mph N/A   Overcast
12:55 AM 22.8 °F 11.5 °F 13.3 °F 67% 30.34 in 10.0 mi West 11.5 mph 21.9 mph N/A   Overcast
1:15 AM 23.0 °F 9.2 °F 14.7 °F 71% 30.35 in 10.0 mi WNW 17.3 mph 24.2 mph N/A   Overcast
2:15 AM 21.7 °F 11.5 °F 12.9 °F 69% 30.36 in 10.0 mi West 9.2 mph 21.9 mph N/A   Mostly Cloudy
2:56 AM 21.7 °F 7.5 °F 12.9 °F 69% 30.37 in 10.0 mi West 17.3 mph 24.2 mph N/A   Overcast
3:16 AM 21.6 °F 9.9 °F 12.2 °F 67% 30.37 in 10.0 mi WNW 11.5 mph 23.0 mph N/A   Mostly Cloudy
3:36 AM 20.7 °F 8.2 °F 11.3 °F 67% 30.37 in 10.0 mi WNW 12.7 mph - N/A   Mostly Cloudy
4:16 AM 20.1 °F 11.3 °F 10.2 °F 66% 30.37 in 10.0 mi WNW 6.9 mph - N/A   Scattered Clouds
4:36 AM 20.3 °F 8.3 °F 9.9 °F 64% 30.36 in 10.0 mi WNW 11.5 mph - N/A   Clear
4:51 AM 20.3 °F 11.5 °F 10.4 °F 66% 30.36 in 10.0 mi WNW 6.9 mph - N/A   Scattered Clouds
5:11 AM 20.1 °F 13.6 °F 10.8 °F 67% 30.35 in 10.0 mi WNW 4.6 mph - N/A   Clear
5:51 AM 20.3 °F 12.5 °F 10.8 °F 67% 30.35 in 10.0 mi WNW 5.8 mph - N/A   Clear
6:12 AM 20.5 °F 10.8 °F 10.8 °F 66% 30.35 in 10.0 mi West 8.1 mph - N/A   Scattered Clouds
6:32 AM 20.5 °F 12.8 °F 10.0 °F 64% 30.35 in 10.0 mi WNW 5.8 mph - N/A   Clear
6:52 AM 20.7 °F 11.9 °F 10.4 °F 65% 30.35 in 10.0 mi WNW 6.9 mph - N/A   Clear
7:12 AM 20.7 °F 14.2 °F 10.4 °F 65% 30.35 in 10.0 mi WNW 4.6 mph - N/A   Clear
7:32 AM 21.0 °F 13.4 °F 10.8 °F 65% 30.35 in 10.0 mi West 5.8 mph - N/A   Clear
7:52 AM 20.1 °F 15.2 °F 10.9 °F 68% 30.35 in 10.0 mi WSW 3.5 mph - N/A   Clear
8:12 AM 19.6 °F - 11.3 °F 70% 30.35 in 10.0 mi Calm Calm - N/A   Clear
8:32 AM 20.7 °F - 12.6 °F 71% 30.35 in 10.0 mi Calm Calm - N/A   Scattered Clouds
9:33 AM 23.9 °F 19.5 °F 14.0 °F 66% 30.35 in 10.0 mi WSW 3.5 mph - N/A   Clear
9:53 AM 24.6 °F 17.7 °F 14.2 °F 65% 30.35 in 10.0 mi WSW 5.8 mph - N/A   Clear
10:13 AM 25.0 °F 17.1 °F 14.5 °F 65% 30.34 in 10.0 mi WSW 6.9 mph - N/A   Scattered Clouds
10:33 AM 25.5 °F 18.7 °F 15.1 °F 65% 30.33 in 10.0 mi WSW 5.8 mph - N/A   Scattered Clouds
10:53 AM 26.6 °F 17.5 °F 16.2 °F 65% 30.34 in 10.0 mi SW 9.2 mph - N/A   Scattered Clouds
11:13 AM 26.8 °F 19.3 °F 16.7 °F 66% 30.34 in 10.0 mi SW 6.9 mph - N/A   Scattered Clouds
11:33 AM 27.0 °F 18.7 °F 16.2 °F 64% 30.34 in 10.0 mi SW 8.1 mph - N/A   Mostly Cloudy
11:54 AM 26.8 °F 17.7 °F 16.5 °F 65% 30.33 in 10.0 mi WSW 9.2 mph 16.1 mph N/A   Mostly Cloudy
12:14 PM 27.3 °F 17.7 °F 16.7 °F 64% 30.31 in 10.0 mi SSW 10.4 mph - N/A   Mostly Cloudy
12:34 PM 28.0 °F 19.3 °F 17.1 °F 63% 30.29 in 10.0 mi SW 9.2 mph - N/A   Overcast
12:54 PM 28.0 °F 18.6 °F 16.7 °F 62% 30.28 in 10.0 mi SW 10.4 mph 16.1 mph N/A   Mostly Cloudy
1:14 PM 27.5 °F 17.4 °F 16.7 °F 64% 30.27 in 10.0 mi SSW 11.5 mph 17.3 mph N/A   Overcast
1:34 PM 28.6 °F 19.9 °F 16.9 °F 62% 30.26 in 10.0 mi South 9.2 mph 16.1 mph N/A   Mostly Cloudy
1:54 PM 28.4 °F 18.0 °F 16.3 °F 61% 30.25 in 10.0 mi SW 12.7 mph 16.1 mph N/A   Mostly Cloudy
2:34 PM 28.8 °F 18.4 °F 16.7 °F 61% 30.26 in 10.0 mi SSW 12.7 mph 20.7 mph N/A   Mostly Cloudy
2:55 PM 29.3 °F 19.6 °F 16.5 °F 59% 30.25 in 10.0 mi SSW 11.5 mph 18.4 mph N/A   Mostly Cloudy
3:15 PM 28.9 °F 18.6 °F 16.7 °F 60% 30.24 in 10.0 mi SSW 12.7 mph 21.9 mph N/A   Mostly Cloudy
3:35 PM 29.3 °F 20.2 °F 16.2 °F 58% 30.23 in 10.0 mi SSW 10.4 mph 17.3 mph N/A   Mostly Cloudy
3:55 PM 29.7 °F 21.3 °F 16.7 °F 59% 30.23 in 10.0 mi SSW 9.2 mph 18.4 mph N/A   Mostly Cloudy
4:15 PM 30.0 °F 20.0 °F 16.7 °F 58% 30.22 in 10.0 mi SW 12.7 mph 20.7 mph N/A   Mostly Cloudy
4:35 PM 29.5 °F 18.8 °F 16.5 °F 59% 30.22 in 10.0 mi SW 13.8 mph 20.7 mph N/A   Mostly Cloudy
4:55 PM 29.7 °F 21.3 °F 17.2 °F 60% 30.21 in 10.0 mi SSW 9.2 mph 21.9 mph N/A   Overcast
5:15 PM 29.7 °F 20.1 °F 17.4 °F 60% 30.20 in 10.0 mi SW 11.5 mph 17.3 mph N/A   Mostly Cloudy
5:35 PM 29.3 °F 18.6 °F 17.4 °F 61% 30.20 in 10.0 mi SSW 13.8 mph 19.6 mph N/A   Mostly Cloudy
5:55 PM 29.7 °F 19.6 °F 18.0 °F 62% 30.20 in 10.0 mi SW 12.7 mph 20.7 mph N/A   Mostly Cloudy
6:16 PM 29.7 °F 19.6 °F 18.3 °F 63% 30.19 in 10.0 mi SW 12.7 mph 20.7 mph N/A   Mostly Cloudy
6:36 PM 29.7 °F 20.1 °F 18.0 °F 62% 30.18 in 10.0 mi SSW 11.5 mph 18.4 mph N/A   Mostly Cloudy
7:16 PM 29.7 °F 20.7 °F 18.9 °F 64% 30.17 in 10.0 mi SSW 10.4 mph 18.4 mph N/A   Scattered Clouds
7:36 PM 30.0 °F 22.4 °F 19.4 °F 65% 30.17 in 10.0 mi SSW 8.1 mph 18.4 mph N/A   Scattered Clouds
7:51 PM 30.2 °F 21.3 °F 19.9 °F 66% 30.17 in 10.0 mi SSW 10.4 mph 19.6 mph N/A   Mostly Cloudy
8:11 PM 30.2 °F 21.9 °F 19.9 °F 66% 30.15 in 10.0 mi SW 9.2 mph 18.4 mph N/A   Mostly Cloudy
8:31 PM 30.7 °F 22.6 °F 19.8 °F 64% 30.15 in 10.0 mi SSW 9.2 mph 18.4 mph N/A   Overcast
8:51 PM 30.9 °F 21.7 °F 19.6 °F 63% 30.13 in 10.0 mi SW 11.5 mph 19.6 mph N/A   Overcast
9:12 PM 31.1 °F 23.1 °F 20.7 °F 65% 30.12 in 10.0 mi SW 9.2 mph 19.6 mph N/A   Mostly Cloudy
9:32 PM 31.1 °F 21.9 °F 19.8 °F 63% 30.11 in 10.0 mi SW 11.5 mph 21.9 mph N/A   Mostly Cloudy
9:52 PM 31.5 °F 21.4 °F 19.6 °F 62% 30.10 in 10.0 mi SW 13.8 mph 23.0 mph N/A   Mostly Cloudy
10:12 PM 31.6 °F 22.1 °F 20.1 °F 62% 30.09 in 10.0 mi SSW 12.7 mph 21.9 mph N/A   Overcast
10:32 PM 31.6 °F 24.4 °F 19.2 °F 60% 30.08 in 10.0 mi SW 8.1 mph - N/A   Mostly Cloudy
10:52 PM 31.6 °F 23.1 °F 19.8 °F 62% 30.07 in 10.0 mi SW 10.4 mph 20.7 mph N/A   Mostly Cloudy
11:12 PM 31.6 °F 22.6 °F 20.1 °F 62% 30.06 in 10.0 mi SW 11.5 mph 17.3 mph N/A   Scattered Clouds
11:32 PM 31.3 °F 23.3 °F 19.9 °F 63% 30.05 in 10.0 mi SW 9.2 mph 18.4 mph N/A   Scattered Clouds
11:53 PM 31.1 °F 21.9 °F 19.8 °F 63% 30.04 in 10.0 mi WSW 11.5 mph 19.6 mph N/A   Scattered Clouds